[[{"header":{"parameterUnit":"m.s-1","parameterCategory":2,"la1":30.2991,"la2":30.254,"lo1":-89.0895,"lo2":-89.0444,"dy":0.0017,"dx":0.0017,"nx":28,"ny":28,"refTime":"2024-10-19T21:00:00:Z","depth":"0","parameterNumber":2,"parameterNumberName":"U-component_of_CURRENTS"},"data":[0,0,0,0,0,0,0,0,0,0,0,0,0,0,0,0,0,0,0,0,0,0,0,0,0,0,0,0,0,0,0,0,0,0,0,0,0,0,0,0,0,0,0,0,0,0,0,0,0,0,0,0,0,0,0,0,0,0,0.2542,0.2541,0,0.2466,0.2465,0.2464,0.2438,0.2438,0.2438,0.2439,0.2347,0.2344,0.2341,0,0,0,0,0,0,0,0,0,0,0,0,0,0.2651,0.2649,0.2542,0.2541,0.254,0.2466,0.2465,0.2464,0.2438,0.2438,0.2438,0.2439,0.2348,0.2344,0.2341,0,0,0,0,0,0,0,0,0,0,0,0,0,0.2592,0.2649,0.2542,0.2518,0.2516,0.2466,0.2465,0.2464,0.2438,0.2438,0.2439,0.2439,0.2349,0.2345,0.2341,0.2306,0,0,0.2328,0.2326,0,0,0,0,0,0,0,0,0.2595,0.2588,0.2523,0.252,0.2517,0.2462,0.247,0.241,0.2437,0.2467,0.2439,0.2439,0.2384,0.2377,0.2361,0.2301,0.2297,0.2328,0.2325,0.2323,0.2322,0,0,0,0,0,0,0,0.2599,0.2591,0.2512,0.2522,0.2518,0.2507,0.2499,0.2458,0.2423,0.2464,0.2462,0.2454,0.2382,0.2365,0.2359,0.2296,0.2328,0.2324,0.2322,0.232,0.2242,0.2243,0,0,0,0,0,0,0.2609,0.2595,0.2514,0.2509,0.2558,0.2505,0.2496,0.2479,0.2424,0.2416,0.2454,0.2453,0.2372,0.2364,0.2355,0.2345,0.2323,0.232,0.2317,0.2242,0.2242,0.2243,0,0,0,0,0,0,0.2612,0.2602,0.2517,0.2551,0.254,0.2502,0.2483,0.2477,0.2462,0.2416,0.2408,0.2446,0.2372,0.2361,0.233,0.234,0.2318,0.2314,0.2241,0.2242,0.2243,0.2302,0,0,0,0,0,0,0.2615,0.2603,0.2596,0.2552,0.2538,0.2494,0.2483,0.2475,0.2456,0.2455,0.2406,0.2398,0.2372,0.2337,0.2326,0.2334,0.2311,0.2241,0.2242,0.2242,0.23,0.2305,0.2309,0,0,0,0,0,0.2619,0.2599,0.2596,0.2587,0.2529,0.2493,0.2486,0.2461,0.2456,0.2449,0.2423,0.24,0.2335,0.2333,0.2321,0.2328,0.224,0.2241,0.2242,0.2298,0.2304,0.2309,0,0,0,0,0,0,0.263,0.2593,0.2589,0.2556,0.2534,0.2489,0.2478,0.2462,0.2434,0.2436,0.2396,0.2385,0.2364,0.2335,0.2335,0.2309,0.2287,0.2285,0.2333,0.2338,0.2343,0.2363,0.2307,0,0,0,0,0,0.2634,0.2614,0.2582,0.2555,0.2549,0.2517,0.25,0.2486,0.2455,0.2443,0.2411,0.2381,0.2357,0.234,0.231,0.2287,0.2295,0.2287,0.2291,0.2296,0.2304,0.2329,0.2338,0.2246,0.2246,0.2246,0,0,0.2625,0.2606,0.2591,0.2558,0.254,0.2528,0.2508,0.2486,0.2478,0.2436,0.2415,0.2391,0.2354,0.2337,0.2325,0.2315,0.2329,0.2297,0.2301,0.2307,0.2331,0.2341,0.2349,0.2246,0.2246,0.2246,0,0,0.261,0.2591,0.258,0.2568,0.255,0.2533,0.253,0.2497,0.2488,0.2464,0.2442,0.2427,0.2375,0.2362,0.2346,0.2355,0.2352,0.2346,0.2384,0.2409,0.2417,0.2424,0.2463,0.2473,0.2349,0.2349,0.235,0,0.2607,0.2585,0.257,0.2565,0.2555,0.2539,0.2531,0.2518,0.2479,0.2475,0.2466,0.2422,0.239,0.2381,0.2392,0.2366,0.2389,0.2366,0.2417,0.2424,0.2431,0.2468,0.2479,0.2352,0.2352,0.2352,0.2352,0,0.2592,0.2578,0.2571,0.2564,0.2554,0.254,0.2532,0.2526,0.2516,0.2503,0.2495,0.2465,0.2443,0.2434,0.2414,0.2442,0.2448,0.2422,0.2408,0.2444,0.2481,0.2491,0.2357,0.2356,0.2355,0.2354,0,0,0.2565,0.2562,0.2559,0.2559,0.2554,0.2539,0.2544,0.2536,0.254,0.2526,0.2532,0.2507,0.2505,0.2489,0.247,0.2494,0.2562,0.2487,0.2487,0.2535,0.2641,0.2542,0.2543,0.2555,0.2556,0.2557,0.2655,0,0.2557,0.255,0.2551,0.2541,0.2536,0.2539,0.2537,0.2536,0.254,0.2545,0.2544,0.2538,0.2522,0.2522,0.2546,0.2549,0.2588,0.2539,0.259,0.2592,0.2506,0.255,0.2396,0.246,0.2664,0.2666,0.2667,0,0.2537,0.2538,0.253,0.253,0.2529,0.2523,0.2531,0.253,0.2549,0.2558,0.2578,0.2579,0.2609,0.2591,0.2648,0.2622,0.2645,0.2655,0.2659,0.255,0.2509,0.2452,0.247,0.2388,0.2682,0.2681,0.268,0,0.2513,0.2515,0.2508,0.2508,0.2512,0.2511,0.2512,0.2527,0.2531,0.2575,0.2593,0.2629,0.2647,0.2686,0.2709,0.2691,0.278,0.2748,0.2688,0.2683,0.255,0.2528,0.2497,0.2806,0.2806,0.2806,0.2806,0,0.2486,0.2476,0.2496,0.2489,0.2476,0.2493,0.2487,0.2502,0.2534,0.2539,0.2596,0.2621,0.2676,0.2723,0.2744,0.2747,0.281,0.2709,0.2699,0.2565,0.2545,0.2464,0.244,0.281,0.2809,0.2808,0.2807,0,0.2431,0.2451,0.2438,0.2455,0.2456,0.244,0.2452,0.2458,0.2504,0.2523,0.2542,0.2631,0.2681,0.273,0.2796,0.2774,0.27,0.2785,0.2629,0.2597,0.241,0.2395,0.2312,0.2239,0.2722,0.272,0.2719,0,0.2389,0.2385,0.2398,0.2387,0.2386,0.2379,0.2377,0.2423,0.244,0.2515,0.2526,0.2602,0.262,0.2691,0.2674,0.2692,0.2637,0.2565,0.2478,0.2385,0.2364,0.2309,0.225,0.235,0.2345,0.2342,0.2339,0,0.2309,0.2324,0.232,0.2308,0.2302,0.2288,0.2298,0.2309,0.2367,0.2392,0.2434,0.2461,0.2521,0.2461,0.2486,0.2477,0.2398,0.2486,0.2431,0.2101,0.1999,0.1927,0.2323,0.2306,0.2309,0.2311,0.2313,0.2315,0.224,0.222,0.223,0.22,0.2201,0.2177,0.2136,0.2173,0.217,0.2174,0.2284,0.2264,0.2278,0.2266,0.2257,0.211,0.2158,0.2014,0.2022,0.199,0.1843,0.2165,0.2096,0.2098,0.21,0.2102,0.2103,0,0.2147,0.2137,0.2117,0.2077,0.2035,0.2067,0.2062,0.2017,0.1976,0.2016,0.2019,0.1962,0.1889,0.1892,0.1772,0.1674,0.1622,0.1615,0.1512,0.1491,0.181,0.1713,0.1504,0.1505,0.1505,0.1505,0.1505,0.1505,0.2093,0.2044,0.2032,0.1916,0.1887,0.1799,0.1771,0.1738,0.1744,0.1665,0.1607,0.1629,0.1643,0.1544,0.1398,0.1358,0.1268,0.1174,0.1229,0.1454,0.1492,0.1529,0.1431,0.1167,0.1167,0.0817,0.0814,0.0812]},{"header":{"parameterUnit":"m.s-1","parameterCategory":2,"la1":30.2991,"la2":30.254,"lo1":-89.0895,"lo2":-89.0444,"dy":0.0017,"dx":0.0017,"nx":28,"ny":28,"refTime":"2024-10-19T21:00:00:Z","depth":"0","parameterNumber":3,"parameterNumberName":"V-component_of_CURRENTS"},"data":[0,0,0,0,0,0,0,0,0,0,0,0,0,0,0,0,0,0,0,0,0,0,0,0,0,0,0,0,0,0,0,0,0,0,0,0,0,0,0,0,0,0,0,0,0,0,0,0,0,0,0,0,0,0,0,0,0,0,-0.0805,-0.0805,0,-0.0784,-0.0783,-0.0783,-0.0785,-0.0786,-0.0786,-0.0786,-0.0792,-0.0792,-0.0791,0,0,0,0,0,0,0,0,0,0,0,0,0,-0.0802,-0.0802,-0.0805,-0.0805,-0.0805,-0.0784,-0.0783,-0.0783,-0.0785,-0.0786,-0.0786,-0.0787,-0.0792,-0.0792,-0.0791,0,0,0,0,0,0,0,0,0,0,0,0,0,-0.0793,-0.0802,-0.0805,-0.0804,-0.0804,-0.0784,-0.0783,-0.0783,-0.0785,-0.0786,-0.0786,-0.0787,-0.0792,-0.0792,-0.0791,-0.0775,0,0,-0.079,-0.079,0,0,0,0,0,0,0,0,-0.0794,-0.0793,-0.0805,-0.0804,-0.0804,-0.0789,-0.0784,-0.0782,-0.0785,-0.0791,-0.0786,-0.0787,-0.0794,-0.0793,-0.0785,-0.0775,-0.0775,-0.079,-0.079,-0.0789,-0.0789,0,0,0,0,0,0,0,-0.0794,-0.0794,-0.0795,-0.0805,-0.0804,-0.0789,-0.0789,-0.0783,-0.0788,-0.079,-0.0791,-0.079,-0.0794,-0.0786,-0.0786,-0.0775,-0.079,-0.079,-0.0789,-0.0789,-0.0738,-0.0737,0,0,0,0,0,0,-0.0801,-0.0795,-0.0796,-0.0795,-0.0802,-0.0789,-0.0789,-0.0792,-0.0788,-0.0788,-0.079,-0.079,-0.0786,-0.0786,-0.0786,-0.075,-0.0789,-0.0789,-0.0789,-0.0739,-0.0738,-0.0736,0,0,0,0,0,0,-0.0801,-0.0802,-0.0797,-0.0795,-0.0794,-0.0789,-0.0792,-0.0791,-0.0783,-0.0787,-0.0788,-0.0783,-0.0787,-0.0786,-0.077,-0.0752,-0.0789,-0.0789,-0.074,-0.0739,-0.0737,-0.069,0,0,0,0,0,0,-0.0801,-0.0802,-0.0804,-0.0796,-0.0794,-0.0774,-0.0792,-0.079,-0.0782,-0.0783,-0.0781,-0.0782,-0.0787,-0.077,-0.0769,-0.0752,-0.0788,-0.0742,-0.074,-0.0738,-0.0693,-0.0687,-0.0682,0,0,0,0,0,-0.0801,-0.0797,-0.0804,-0.0804,-0.0798,-0.0773,-0.077,-0.0768,-0.0781,-0.0766,-0.0767,-0.0782,-0.0757,-0.0769,-0.0768,-0.075,-0.0743,-0.074,-0.0738,-0.0695,-0.0688,-0.0682,0,0,0,0,0,0,-0.0785,-0.0796,-0.0805,-0.0801,-0.0786,-0.0774,-0.0763,-0.0765,-0.0753,-0.0759,-0.0766,-0.0766,-0.0745,-0.0752,-0.0765,-0.0728,-0.0753,-0.075,-0.0721,-0.0714,-0.0709,-0.0694,-0.0788,0,0,0,0,0,-0.0786,-0.0793,-0.0788,-0.0783,-0.0777,-0.0771,-0.0762,-0.0761,-0.0751,-0.0747,-0.0743,-0.0741,-0.0733,-0.0728,-0.072,-0.0699,-0.0688,-0.0688,-0.0682,-0.0677,-0.0664,-0.0638,-0.0628,-0.0728,-0.0728,-0.0728,0,0,-0.0777,-0.0785,-0.0787,-0.0781,-0.0772,-0.0744,-0.0766,-0.0749,-0.0724,-0.075,-0.0714,-0.0721,-0.0722,-0.0697,-0.0688,-0.0701,-0.0639,-0.0674,-0.067,-0.0659,-0.0634,-0.0624,-0.0616,-0.0727,-0.0727,-0.0727,0,0,-0.0749,-0.0769,-0.0757,-0.0744,-0.0734,-0.0726,-0.072,-0.0704,-0.0698,-0.067,-0.0681,-0.067,-0.0658,-0.0647,-0.0645,-0.0602,-0.061,-0.0609,-0.0569,-0.0543,-0.0535,-0.0527,-0.0483,-0.0472,-0.0607,-0.0607,-0.0607,0,-0.0735,-0.0722,-0.0744,-0.072,-0.0701,-0.0715,-0.0676,-0.0668,-0.0646,-0.0629,-0.0653,-0.0616,-0.0629,-0.0587,-0.0582,-0.0588,-0.0574,-0.0596,-0.0535,-0.0528,-0.0521,-0.0477,-0.0466,-0.0604,-0.0605,-0.0605,-0.0605,0,-0.0693,-0.0677,-0.0664,-0.0644,-0.0625,-0.0596,-0.0588,-0.0569,-0.0572,-0.056,-0.0525,-0.0535,-0.0513,-0.052,-0.0544,-0.0498,-0.0502,-0.0532,-0.0553,-0.0508,-0.0465,-0.0453,-0.0601,-0.0601,-0.0602,-0.0603,0,0,-0.0655,-0.064,-0.0629,-0.06,-0.0583,-0.0552,-0.0522,-0.0481,-0.0444,-0.0445,-0.0386,-0.0399,-0.0414,-0.0412,-0.0435,-0.0424,-0.0372,-0.0462,-0.0462,-0.0417,-0.0299,-0.0315,-0.0305,-0.0398,-0.0396,-0.0395,-0.0282,0,-0.0603,-0.055,-0.0554,-0.0478,-0.0442,-0.0445,-0.0406,-0.0379,-0.0365,-0.0313,-0.0331,-0.0295,-0.037,-0.036,-0.0361,-0.0367,-0.0343,-0.0398,-0.035,-0.0347,-0.0367,-0.0293,-0.0289,-0.019,-0.0271,-0.0269,-0.0268,0,-0.0541,-0.0516,-0.0446,-0.039,-0.0373,-0.0333,-0.0267,-0.0238,-0.0196,-0.0187,-0.017,-0.0179,-0.0162,-0.0234,-0.0217,-0.0253,-0.027,-0.028,-0.0276,-0.03,-0.0343,-0.0252,-0.0167,-0.0236,-0.0251,-0.0252,-0.0253,0,-0.0481,-0.0425,-0.0367,-0.0348,-0.0297,-0.0261,-0.0237,-0.0195,-0.0146,-0.0105,-0.0056,-0.0056,-0.0024,-0.0063,-0.0112,-0.016,-0.0078,-0.0144,-0.016,-0.0161,-0.015,-0.0154,-0.0126,-0.0111,-0.0112,-0.0112,-0.0112,0,-0.041,-0.0352,-0.0336,-0.0296,-0.0214,-0.0209,-0.0117,-0.0098,-0.0038,0.0051,0.0009,0.0093,0.0016,0.0042,-0.0036,-0.005,-0.0018,-0.0123,-0.0127,-0.0133,-0.0136,-0.0193,-0.0252,-0.0108,-0.0109,-0.0109,-0.011,0,-0.0327,-0.0323,-0.0246,-0.02,-0.0179,-0.0121,-0.0044,0.0027,0.0052,0.0173,0.0193,0.0237,0.0254,0.0188,0.0167,0.0077,0.0007,0.0031,0.0036,0.0029,-0.0095,-0.0152,-0.012,-0.0154,0.0031,0.0031,0.0032,0,-0.0273,-0.0233,-0.0173,-0.0122,-0.0092,-0.002,0.0041,0.0072,0.0155,0.0274,0.0358,0.041,0.0469,0.0429,0.0283,0.0182,0.0076,0.0109,0.0002,-0.0071,-0.0137,-0.0183,-0.0218,0.0051,0.0052,0.0052,0.0052,0,-0.0164,-0.0154,-0.01,-0.0012,0.0059,0.0141,0.0226,0.03,0.0362,0.0458,0.0599,0.0652,0.0616,0.0524,0.0368,0.0275,0.0046,0.0111,0.0042,-0.0104,-0.0155,-0.02,-0.0045,0.0056,0.0055,0.0055,0.0055,0.0055,-0.0082,-0.003,0.0027,0.0116,0.0195,0.0295,0.036,0.0463,0.0585,0.0721,0.0774,0.0857,0.0707,0.0491,0.0363,0.0108,0.0082,0.0006,-0.0046,-0.0076,-0.0148,0.0017,0.0092,0.0091,0.0091,0.0091,0.0091,0,0.0021,0.0066,0.0156,0.0248,0.0338,0.0357,0.0487,0.0549,0.0685,0.0825,0.0925,0.0897,0.0719,0.0491,0.015,-0.0023,-0.01,-0.0115,-0.0177,-0.0201,-0.0031,-0.0073,-0.0039,-0.0039,-0.0039,-0.0039,-0.0039,-0.0039,0.0081,0.0171,0.0201,0.0349,0.0413,0.0511,0.0571,0.0671,0.0773,0.0909,0.0958,0.0986,0.0806,0.0281,-0.0078,-0.0161,-0.0295,-0.0314,-0.0377,-0.0275,-0.0269,-0.0262,-0.0315,-0.0332,-0.0332,-0.0525,-0.0527,-0.0528]}],[{"header":{"parameterUnit":"m.s-1","parameterCategory":2,"la1":30.2991,"la2":30.254,"lo1":-89.0895,"lo2":-89.0444,"dy":0.0017,"dx":0.0017,"nx":28,"ny":28,"refTime":"2024-10-19T21:00:00:Z","depth":"2","parameterNumber":2,"parameterNumberName":"U-component_of_CURRENTS"},"data":[0,0,0,0,0,0,0,0,0,0,0,0,0,0,0,0,0,0,0,0,0,0,0,0,0,0,0,0,0,0,0,0,0,0,0,0,0,0,0,0,0,0,0,0,0,0,0,0,0,0,0,0,0,0,0,0,0,0,0.1832,0.1832,0,0.1853,0.1854,0.1855,0.1906,0.1907,0.1907,0.1908,0.1871,0.187,0.1868,0,0,0,0,0,0,0,0,0,0,0,0,0,0.1822,0.1823,0.1833,0.1832,0.1832,0.1853,0.1854,0.1855,0.1906,0.1907,0.1907,0.1908,0.1871,0.187,0.1868,0,0,0,0,0,0,0,0,0,0,0,0,0,0.184,0.1823,0.1833,0.1854,0.1856,0.1853,0.1854,0.1855,0.1906,0.1907,0.1907,0.1908,0.1872,0.187,0.1868,0.1844,0,0,0.1862,0.1861,0,0,0,0,0,0,0,0,0.1839,0.1842,0.1851,0.1853,0.1854,0.1871,0.1836,0.1846,0.1906,0.1895,0.1908,0.1908,0.186,0.1859,0.1874,0.1842,0.1841,0.1862,0.186,0.186,0.1859,0,0,0,0,0,0,0,0.1838,0.1841,0.1849,0.1851,0.1852,0.1857,0.1861,0.1839,0.1879,0.1896,0.1898,0.1888,0.1862,0.1876,0.1873,0.184,0.1862,0.186,0.1859,0.1858,0.1894,0.1896,0,0,0,0,0,0,0.182,0.184,0.1848,0.1848,0.1839,0.1856,0.1861,0.1871,0.1881,0.1881,0.1887,0.189,0.1879,0.1875,0.1871,0.1899,0.186,0.1858,0.1857,0.1892,0.1894,0.1897,0,0,0,0,0,0,0.182,0.1822,0.1847,0.1837,0.184,0.1855,0.1866,0.1871,0.1898,0.1873,0.1874,0.1909,0.1879,0.1874,0.1882,0.1896,0.1857,0.1855,0.1889,0.1893,0.1896,0.1918,0,0,0,0,0,0,0.182,0.1822,0.1836,0.1836,0.1839,0.1852,0.1865,0.1871,0.1885,0.189,0.1891,0.1888,0.1879,0.1886,0.188,0.1892,0.1853,0.1886,0.1891,0.1895,0.1915,0.1922,0.1928,0,0,0,0,0,0.182,0.1848,0.1837,0.1838,0.1855,0.1851,0.1855,0.1871,0.1886,0.1899,0.1914,0.1889,0.1908,0.1885,0.1878,0.189,0.1884,0.1889,0.1894,0.1912,0.192,0.1928,0,0,0,0,0,0,0.1865,0.1854,0.1844,0.187,0.1855,0.1857,0.1885,0.1876,0.1901,0.1911,0.1901,0.1899,0.191,0.1907,0.1882,0.1921,0.1898,0.1901,0.1913,0.1921,0.1928,0.1941,0.1852,0,0,0,0,0,0.1871,0.1872,0.1863,0.1871,0.1888,0.1884,0.1889,0.1881,0.189,0.1904,0.1908,0.1921,0.1924,0.1928,0.1927,0.1937,0.194,0.195,0.1957,0.1962,0.1973,0.1986,0.1993,0.1913,0.1913,0.1913,0,0,0.1871,0.1874,0.1866,0.1876,0.1889,0.1897,0.1894,0.19,0.1906,0.1891,0.1936,0.193,0.1931,0.1951,0.1958,0.195,0.1992,0.1968,0.1972,0.1981,0.1992,0.1999,0.2006,0.1916,0.1915,0.1915,0,0,0.1882,0.1904,0.1916,0.1914,0.1913,0.1911,0.1912,0.1921,0.1946,0.1969,0.1959,0.1975,0.1997,0.1994,0.1997,0.2042,0.2018,0.2042,0.2086,0.2098,0.2104,0.2109,0.2134,0.2141,0.2053,0.2054,0.2054,0,0.1888,0.19,0.1914,0.1934,0.1935,0.1922,0.1932,0.1952,0.195,0.197,0.1997,0.2032,0.2027,0.2031,0.2061,0.2053,0.2059,0.2046,0.2103,0.2108,0.2113,0.2138,0.2145,0.2055,0.2055,0.2055,0.2055,0,0.1889,0.1913,0.1935,0.1947,0.1958,0.1957,0.1974,0.199,0.2025,0.2035,0.2074,0.2088,0.211,0.2112,0.2107,0.2127,0.2121,0.2097,0.2073,0.2122,0.2146,0.2153,0.2058,0.2057,0.2057,0.2056,0,0,0.1872,0.192,0.1928,0.1942,0.196,0.1964,0.1999,0.2019,0.2044,0.2085,0.2137,0.2161,0.2169,0.2174,0.2154,0.2175,0.2221,0.2161,0.2161,0.217,0.2259,0.2168,0.2168,0.2197,0.2198,0.2199,0.2265,0,0.1868,0.1899,0.1925,0.1947,0.1975,0.1987,0.2019,0.2032,0.208,0.2131,0.2163,0.2207,0.2191,0.2209,0.2224,0.2216,0.2241,0.2207,0.2225,0.2227,0.2125,0.2173,0.1991,0.2026,0.2272,0.2273,0.2274,0,0.1873,0.1888,0.192,0.196,0.1979,0.1989,0.2034,0.2057,0.2115,0.2163,0.2207,0.2238,0.2276,0.2271,0.2297,0.2274,0.2279,0.2281,0.2282,0.2194,0.2149,0.2017,0.203,0.2286,0.2285,0.2284,0.2283,0,0.1857,0.1899,0.1922,0.1928,0.1967,0.1995,0.2016,0.2068,0.2102,0.2188,0.2237,0.2276,0.2313,0.2333,0.2344,0.2331,0.2376,0.2354,0.2278,0.2273,0.2121,0.2099,0.2383,0.2383,0.2383,0.2382,0.2382,0,0.1847,0.1862,0.1918,0.1923,0.194,0.1994,0.2039,0.206,0.2132,0.216,0.2251,0.228,0.2332,0.236,0.2369,0.2343,0.2395,0.2299,0.2282,0.2126,0.2105,0.2327,0.232,0.2385,0.2384,0.2384,0.2383,0,0.1815,0.1855,0.1873,0.192,0.1939,0.1952,0.2024,0.2045,0.2134,0.2179,0.2216,0.2295,0.2329,0.2367,0.2394,0.2357,0.2358,0.2331,0.2152,0.2112,0.225,0.2244,0.2277,0.2274,0.2272,0.227,0.2268,0,0.1786,0.1805,0.1853,0.1865,0.1886,0.193,0.1947,0.2023,0.2047,0.2162,0.2165,0.2248,0.2248,0.2279,0.2246,0.2249,0.2306,0.2071,0.2007,0.2258,0.224,0.2237,0.2234,0.1834,0.1829,0.1825,0.1821,0,0.1726,0.1763,0.1787,0.18,0.1823,0.1846,0.1888,0.1891,0.1974,0.2014,0.2041,0.207,0.2109,0.2011,0.2023,0.2001,0.2059,0.1985,0.2295,0.1875,0.1841,0.1823,0.1834,0.1785,0.1788,0.1791,0.1793,0.1794,0.1692,0.1677,0.1727,0.173,0.1751,0.1743,0.1724,0.1762,0.1767,0.1776,0.1852,0.1831,0.185,0.1768,0.1716,0.1695,0.1842,0.1761,0.1774,0.1791,0.1714,0.1677,0.1577,0.1579,0.1581,0.1583,0.1585,0,0.1615,0.1622,0.164,0.164,0.1618,0.1666,0.166,0.1619,0.1558,0.1586,0.1586,0.1446,0.1391,0.1439,0.1341,0.1338,0.1333,0.1289,0.1268,0.1305,0.1338,0.1238,0.0974,0.0973,0.0971,0.0969,0,0,0.1571,0.1552,0.1552,0.1506,0.1511,0.1445,0.1413,0.1354,0.1347,0.1262,0.1231,0.1321,0.1381,0.1152,0.1126,0.1031,0.1162,0.0992,0.1483,0.1494,0.1525,0.1612,0.15,0,0,0,0,0]},{"header":{"parameterUnit":"m.s-1","parameterCategory":2,"la1":30.2991,"la2":30.254,"lo1":-89.0895,"lo2":-89.0444,"dy":0.0017,"dx":0.0017,"nx":28,"ny":28,"refTime":"2024-10-19T21:00:00:Z","depth":"2","parameterNumber":3,"parameterNumberName":"V-component_of_CURRENTS"},"data":[0,0,0,0,0,0,0,0,0,0,0,0,0,0,0,0,0,0,0,0,0,0,0,0,0,0,0,0,0,0,0,0,0,0,0,0,0,0,0,0,0,0,0,0,0,0,0,0,0,0,0,0,0,0,0,0,0,0,0.0329,0.0329,0,0.0301,0.03,0.03,0.0255,0.0255,0.0254,0.0254,0.0216,0.0215,0.0214,0,0,0,0,0,0,0,0,0,0,0,0,0,0.0359,0.0358,0.0329,0.0329,0.0329,0.0301,0.03,0.0299,0.0255,0.0255,0.0254,0.0254,0.0216,0.0215,0.0214,0,0,0,0,0,0,0,0,0,0,0,0,0,0.0336,0.0358,0.0329,0.0307,0.0305,0.0301,0.03,0.0299,0.0255,0.0255,0.0254,0.0253,0.0216,0.0215,0.0214,0.0219,0,0,0.0211,0.0211,0,0,0,0,0,0,0,0,0.0337,0.0334,0.031,0.0309,0.0307,0.0285,0.0297,0.0274,0.0255,0.0269,0.0254,0.0253,0.0242,0.0238,0.0228,0.0217,0.0216,0.0211,0.021,0.021,0.021,0,0,0,0,0,0,0,0.0339,0.0335,0.0313,0.0311,0.0308,0.0305,0.03,0.0292,0.0255,0.0268,0.0266,0.027,0.024,0.0229,0.0226,0.0215,0.0211,0.021,0.0209,0.0209,0.0147,0.0146,0,0,0,0,0,0,0.0351,0.0336,0.0314,0.0313,0.0326,0.0305,0.0299,0.0289,0.0255,0.0251,0.0271,0.0269,0.0231,0.0228,0.0225,0.0209,0.021,0.0209,0.0208,0.0148,0.0147,0.0146,0,0,0,0,0,0,0.0352,0.0349,0.0315,0.0329,0.0325,0.0305,0.0293,0.0289,0.0273,0.0259,0.0253,0.0261,0.023,0.0226,0.0204,0.0208,0.0209,0.0208,0.0149,0.0148,0.0146,0.019,0,0,0,0,0,0,0.0353,0.0349,0.0338,0.0329,0.0325,0.0312,0.0294,0.0289,0.028,0.0276,0.0249,0.0245,0.0229,0.0205,0.0203,0.0207,0.0207,0.0151,0.0149,0.0147,0.019,0.019,0.0191,0,0,0,0,0,0.0353,0.0342,0.0337,0.0334,0.0312,0.0312,0.0309,0.0291,0.028,0.0274,0.0247,0.0245,0.019,0.0204,0.0201,0.0205,0.0152,0.0149,0.0147,0.019,0.019,0.0191,0,0,0,0,0,0,0.0346,0.0337,0.0331,0.0315,0.0316,0.0307,0.0298,0.0292,0.0266,0.0259,0.0239,0.0232,0.0216,0.0196,0.0211,0.0176,0.0168,0.0165,0.0202,0.0202,0.0202,0.0218,0.0206,0,0,0,0,0,0.0342,0.0336,0.0329,0.0323,0.0318,0.0309,0.0304,0.0298,0.0282,0.027,0.025,0.0222,0.0205,0.0192,0.0173,0.0159,0.0148,0.0153,0.0154,0.0154,0.0161,0.0153,0.0154,0.0138,0.0138,0.0138,0,0,0.0349,0.0337,0.0339,0.0322,0.0315,0.0317,0.0302,0.0301,0.0303,0.0272,0.0253,0.0229,0.02,0.0182,0.0171,0.0166,0.0148,0.0151,0.0153,0.0159,0.0151,0.0153,0.0154,0.0136,0.0137,0.0137,0,0,0.036,0.0336,0.0336,0.0333,0.0328,0.0323,0.0325,0.0312,0.03,0.0284,0.0262,0.0236,0.0203,0.0185,0.0172,0.016,0.0154,0.015,0.0165,0.0157,0.0159,0.0161,0.0137,0.0137,0.0146,0.0146,0.0146,0,0.0363,0.0358,0.0339,0.0336,0.0339,0.0327,0.0335,0.0325,0.0308,0.0306,0.0279,0.0234,0.0205,0.0197,0.0182,0.0165,0.0155,0.0174,0.0161,0.0163,0.0164,0.014,0.0138,0.0148,0.0148,0.0148,0.0148,0,0.0383,0.0373,0.0372,0.0364,0.0361,0.0368,0.0359,0.0354,0.0335,0.0328,0.0308,0.0261,0.0235,0.0217,0.0193,0.0189,0.0176,0.0171,0.0172,0.0169,0.0142,0.014,0.0151,0.015,0.015,0.0149,0,0,0.0402,0.0389,0.0389,0.0389,0.0377,0.0382,0.0384,0.0388,0.0401,0.0361,0.0366,0.0311,0.0289,0.027,0.024,0.022,0.0204,0.0198,0.0196,0.0193,0.0179,0.0162,0.0158,0.0206,0.0207,0.0207,0.0153,0,0.0422,0.0428,0.0416,0.0429,0.0429,0.042,0.0428,0.043,0.0419,0.0418,0.0374,0.0362,0.031,0.0297,0.0269,0.0228,0.0203,0.0219,0.0165,0.0163,0.0164,0.0157,0.0176,0.0131,0.0152,0.0151,0.0151,0,0.0439,0.0442,0.0455,0.046,0.046,0.0467,0.0483,0.0491,0.0493,0.0482,0.0461,0.0433,0.0394,0.035,0.0277,0.0292,0.0236,0.0197,0.0194,0.0165,0.0143,0.0135,0.0126,0.0148,0.0148,0.0148,0.0149,0,0.0462,0.0464,0.0477,0.0479,0.0486,0.0492,0.05,0.051,0.0529,0.0526,0.0538,0.0489,0.0464,0.0396,0.0297,0.0293,0.0218,0.0204,0.0135,0.0133,0.0132,0.0129,0.0158,0.0158,0.0158,0.0158,0.0158,0,0.048,0.049,0.0488,0.0499,0.0524,0.0515,0.0548,0.0556,0.0575,0.0607,0.057,0.0579,0.0477,0.0421,0.0325,0.0221,0.0237,0.0139,0.0122,0.0143,0.0143,0.0146,0.0145,0.0156,0.0157,0.0157,0.0157,0,0.0495,0.0495,0.0514,0.0528,0.0531,0.0551,0.0582,0.0617,0.0627,0.0667,0.067,0.0646,0.0574,0.0467,0.0353,0.0262,0.0164,0.0124,0.0145,0.0132,0.0074,0.0076,0.0045,0.0044,0.0043,0.0043,0.0042,0,0.0505,0.0512,0.0537,0.0553,0.0557,0.0583,0.0613,0.0637,0.0673,0.0708,0.073,0.0689,0.0658,0.0483,0.0331,0.0173,0.0154,0.0083,0.0075,0.0078,0.0065,0.0068,0.0071,0.0081,0.0081,0.008,0.008,0,0.0524,0.0529,0.0548,0.058,0.0607,0.065,0.0684,0.0722,0.0758,0.0791,0.0813,0.0795,0.0653,0.0506,0.0303,0.0198,0.0109,0.0074,0.0082,0.0109,0.0108,0.0096,0.0099,0.0079,0.0079,0.0079,0.0079,0.0079,0.0535,0.0551,0.057,0.0599,0.0639,0.0692,0.0731,0.0776,0.083,0.0868,0.0857,0.0827,0.0688,0.0427,0.0263,0.0093,0.01,0.0033,0.0035,0.0037,0.0053,0.0051,0.0013,0.0013,0.0013,0.0013,0.0012,0,0.0536,0.0553,0.0585,0.0621,0.0663,0.0687,0.0763,0.0802,0.0857,0.0886,0.089,0.0747,0.0605,0.0441,0.0197,0.0048,0.0041,-0.0006,0.0026,0.0029,0.0031,0.0048,0.0006,0.0006,0.0005,0.0005,0,0,0.0535,0.0556,0.0569,0.0617,0.0651,0.0714,0.076,0.0824,0.0859,0.0869,0.0849,0.0826,0.0645,0.0464,0.0277,0.0141,0.0112,0.0108,0.013,0.0192,0.0196,0.0072,0.0103,0,0,0,0,0]}],[{"header":{"parameterUnit":"m.s-1","parameterCategory":2,"la1":30.2991,"la2":30.254,"lo1":-89.0895,"lo2":-89.0444,"dy":0.0017,"dx":0.0017,"nx":28,"ny":28,"refTime":"2024-10-19T21:00:00:Z","depth":"4","parameterNumber":2,"parameterNumberName":"U-component_of_CURRENTS"},"data":[0,0,0,0,0,0,0,0,0,0,0,0,0,0,0,0,0,0,0,0,0,0,0,0,0,0,0,0,0,0,0,0,0,0,0,0,0,0,0,0,0,0,0,0,0,0,0,0,0,0,0,0,0,0,0,0,0,0,0.0815,0.0816,0,0.0857,0.0858,0.0858,0.0892,0.0893,0.0893,0.0894,0.0979,0.098,0.0982,0,0,0,0,0,0,0,0,0,0,0,0,0,0.0737,0.0739,0.0815,0.0816,0.0817,0.0857,0.0858,0.0858,0.0892,0.0893,0.0893,0.0894,0.0978,0.098,0.0982,0,0,0,0,0,0,0,0,0,0,0,0,0,0.0772,0.0739,0.0815,0.0841,0.0844,0.0857,0.0858,0.0858,0.0892,0.0893,0.0894,0.0895,0.0977,0.098,0.0982,0.0978,0,0,0.099,0.0991,0,0,0,0,0,0,0,0,0.077,0.0774,0.0837,0.0839,0.0843,0.0873,0.0861,0.0901,0.0892,0.087,0.0894,0.0895,0.0949,0.0953,0.0954,0.0982,0.0986,0.099,0.0992,0.0993,0.0993,0,0,0,0,0,0,0,0.0767,0.0772,0.0829,0.0837,0.0841,0.0841,0.0847,0.0868,0.0902,0.0872,0.0876,0.0885,0.095,0.0952,0.0957,0.0987,0.099,0.0992,0.0994,0.0995,0.1115,0.1117,0,0,0,0,0,0,0.0769,0.077,0.0828,0.083,0.0811,0.0842,0.0849,0.086,0.0901,0.0909,0.0884,0.0886,0.0947,0.0954,0.096,0.1036,0.0993,0.0995,0.0996,0.1113,0.1115,0.1117,0,0,0,0,0,0,0.0767,0.0773,0.0826,0.0803,0.0811,0.0843,0.0855,0.086,0.0888,0.091,0.0918,0.0909,0.0948,0.0956,0.1008,0.1037,0.0996,0.0998,0.1111,0.1114,0.1116,0.1139,0,0,0,0,0,0,0.0764,0.0772,0.0788,0.0804,0.0812,0.0851,0.0855,0.0861,0.0892,0.0896,0.0934,0.0941,0.0949,0.1005,0.1011,0.104,0.1,0.1109,0.1113,0.1116,0.1137,0.1142,0.1148,0,0,0,0,0,0.0761,0.0774,0.0788,0.0796,0.083,0.0852,0.0856,0.0879,0.0892,0.0907,0.0941,0.0941,0.103,0.1008,0.1015,0.1045,0.1108,0.1112,0.1115,0.1134,0.1141,0.1147,0,0,0,0,0,0,0.0745,0.0779,0.0795,0.0818,0.0843,0.0859,0.0875,0.0892,0.0927,0.0941,0.0959,0.0969,0.1026,0.1035,0.1011,0.1092,0.107,0.1076,0.1082,0.1089,0.1095,0.1093,0.1002,0,0,0,0,0,0.075,0.0772,0.0801,0.0821,0.0835,0.086,0.0875,0.0895,0.0924,0.0941,0.0969,0.1006,0.1041,0.1066,0.1094,0.1136,0.1141,0.1163,0.1168,0.1173,0.1178,0.1209,0.1217,0.113,0.113,0.113,0,0,0.0747,0.0772,0.0783,0.0821,0.084,0.0866,0.0871,0.0903,0.0931,0.0945,0.0996,0.1026,0.1058,0.1106,0.1133,0.1121,0.1202,0.1177,0.1181,0.1184,0.1213,0.1222,0.1229,0.1132,0.1132,0.1132,0,0,0.075,0.0777,0.0797,0.0823,0.0865,0.0882,0.0898,0.0933,0.0956,0.1005,0.1027,0.1076,0.1126,0.1154,0.1174,0.1228,0.1229,0.1245,0.1272,0.1302,0.1309,0.1315,0.1332,0.1339,0.1248,0.1248,0.1248,0,0.0753,0.078,0.0805,0.0834,0.086,0.0893,0.0922,0.0946,0.0997,0.1022,0.103,0.1122,0.1147,0.1207,0.1231,0.1239,0.1254,0.124,0.1307,0.1313,0.1319,0.1335,0.1343,0.125,0.125,0.125,0.1249,0,0.0764,0.0798,0.0812,0.0862,0.0892,0.0923,0.0962,0.1,0.1035,0.1061,0.1133,0.117,0.1226,0.1244,0.1256,0.1319,0.1315,0.1307,0.1284,0.1329,0.1344,0.1351,0.1252,0.1252,0.1251,0.1251,0,0,0.0755,0.0809,0.0822,0.085,0.0914,0.0938,0.0989,0.104,0.1079,0.1131,0.1183,0.1248,0.1274,0.13,0.1325,0.1355,0.1407,0.1355,0.1356,0.1361,0.1472,0.1357,0.1355,0.1414,0.1415,0.1416,0.1465,0,0.0766,0.0812,0.0843,0.09,0.0928,0.0979,0.1023,0.1077,0.1121,0.1177,0.1225,0.1285,0.1293,0.1333,0.1365,0.1403,0.143,0.1395,0.1438,0.144,0.1322,0.136,0.1422,0.147,0.1472,0.1473,0.1474,0,0.0776,0.0809,0.0855,0.0924,0.0943,0.0985,0.1066,0.111,0.1186,0.1223,0.1287,0.1324,0.1397,0.1387,0.1467,0.1448,0.1467,0.1483,0.1485,0.1374,0.1338,0.1419,0.1488,0.1487,0.1486,0.1485,0.1484,0,0.0755,0.0824,0.0859,0.0884,0.0961,0.1002,0.1053,0.113,0.1176,0.126,0.1303,0.1379,0.1434,0.1471,0.151,0.1501,0.1578,0.1563,0.1474,0.1466,0.1544,0.1537,0.161,0.161,0.1609,0.1609,0.1609,0,0.0751,0.0789,0.0856,0.0878,0.0938,0.1,0.107,0.1127,0.1213,0.1266,0.1331,0.1377,0.1461,0.151,0.1529,0.1522,0.1594,0.1483,0.1472,0.1553,0.1547,0.1549,0.1541,0.1611,0.1611,0.161,0.161,0,0.0725,0.0765,0.0815,0.0896,0.0928,0.0976,0.1082,0.1122,0.1211,0.1283,0.1317,0.1406,0.146,0.1515,0.158,0.1537,0.1545,0.1522,0.1607,0.1599,0.1409,0.1402,0.1426,0.1422,0.1419,0.1416,0.1414,0,0.0713,0.0731,0.0818,0.0852,0.0895,0.0971,0.1016,0.1114,0.1155,0.1281,0.1304,0.1393,0.1438,0.1434,0.1494,0.1511,0.1493,0.1482,0.1441,0.1404,0.1392,0.139,0.1387,0.1409,0.1408,0.1408,0.1407,0,0.069,0.0724,0.0761,0.0826,0.0878,0.0929,0.1004,0.1027,0.1131,0.1222,0.1261,0.1286,0.1337,0.1369,0.1392,0.14,0.1479,0.1449,0.1455,0.1417,0.1384,0.1375,0.1376,0.1396,0.1398,0.1399,0.1399,0,0.0677,0.0692,0.074,0.0794,0.0851,0.0873,0.0916,0.0962,0.1015,0.1148,0.1155,0.1239,0.1326,0.1311,0.1331,0.133,0.1308,0.1258,0.1274,0.1286,0.1216,0.1153,0.1087,0,0,0,0,0,0.0662,0.067,0.0709,0.075,0.0798,0.0831,0.0901,0.0941,0.1033,0.1029,0.1094,0.1131,0.1157,0.1196,0.1167,0.1266,0.1312,0.1225,0.1262,0.1337,0.1349,0.1277,0,0,0,0,0,0,0.0649,0.0681,0.0688,0.0701,0.0718,0.0754,0.079,0.0849,0.0853,0.0956,0.0976,0.1056,0.1099,0.1169,0.1146,0.1158,0.1155,0.1282,0.1278,0.133,0.1341,0.1351,0.1282,0,0,0,0,0]},{"header":{"parameterUnit":"m.s-1","parameterCategory":2,"la1":30.2991,"la2":30.254,"lo1":-89.0895,"lo2":-89.0444,"dy":0.0017,"dx":0.0017,"nx":28,"ny":28,"refTime":"2024-10-19T21:00:00:Z","depth":"4","parameterNumber":3,"parameterNumberName":"V-component_of_CURRENTS"},"data":[0,0,0,0,0,0,0,0,0,0,0,0,0,0,0,0,0,0,0,0,0,0,0,0,0,0,0,0,0,0,0,0,0,0,0,0,0,0,0,0,0,0,0,0,0,0,0,0,0,0,0,0,0,0,0,0,0,0,0.0379,0.0379,0,0.038,0.0381,0.0381,0.0392,0.0392,0.0392,0.0392,0.0376,0.0376,0.0375,0,0,0,0,0,0,0,0,0,0,0,0,0,0.0374,0.0374,0.0379,0.0379,0.0379,0.038,0.0381,0.0381,0.0391,0.0392,0.0392,0.0392,0.0377,0.0376,0.0375,0,0,0,0,0,0,0,0,0,0,0,0,0,0.0377,0.0375,0.0379,0.0384,0.0384,0.038,0.0381,0.0381,0.0391,0.0392,0.0392,0.0392,0.0377,0.0376,0.0375,0.0364,0,0,0.0372,0.0372,0,0,0,0,0,0,0,0,0.0377,0.0377,0.0383,0.0384,0.0384,0.0385,0.0373,0.0374,0.0391,0.039,0.0392,0.0392,0.0377,0.0376,0.0377,0.0363,0.0362,0.0372,0.0372,0.0371,0.0371,0,0,0,0,0,0,0,0.0377,0.0377,0.0381,0.0383,0.0384,0.0382,0.0383,0.0373,0.0382,0.039,0.039,0.0389,0.0377,0.0378,0.0377,0.0362,0.0372,0.0372,0.0371,0.0371,0.0341,0.0341,0,0,0,0,0,0,0.0375,0.0377,0.0381,0.0381,0.038,0.0382,0.0383,0.0385,0.0383,0.0382,0.0389,0.039,0.0379,0.0378,0.0376,0.0376,0.0371,0.0371,0.037,0.0342,0.0341,0.0341,0,0,0,0,0,0,0.0375,0.0376,0.038,0.0378,0.0378,0.0382,0.0384,0.0385,0.039,0.0382,0.0382,0.0394,0.038,0.0378,0.0374,0.0375,0.037,0.0369,0.0342,0.0342,0.0341,0.0367,0,0,0,0,0,0,0.0375,0.0376,0.038,0.0378,0.0378,0.0382,0.0384,0.0385,0.0389,0.039,0.0386,0.0384,0.038,0.0375,0.0373,0.0374,0.0369,0.0342,0.0342,0.0341,0.0366,0.0367,0.0368,0,0,0,0,0,0.0375,0.038,0.038,0.038,0.0383,0.0381,0.0382,0.0385,0.0388,0.0391,0.039,0.0385,0.037,0.0375,0.0372,0.0372,0.0342,0.0342,0.0341,0.0366,0.0367,0.0368,0,0,0,0,0,0,0.0379,0.0381,0.0381,0.0387,0.0385,0.0383,0.0387,0.0387,0.0388,0.0391,0.0384,0.0383,0.0379,0.0369,0.0374,0.0361,0.0354,0.0353,0.0373,0.0374,0.0375,0.0377,0.0368,0,0,0,0,0,0.0381,0.0386,0.0384,0.0388,0.0389,0.0388,0.0389,0.039,0.0389,0.0391,0.0388,0.0381,0.0373,0.037,0.0362,0.0356,0.0332,0.0352,0.0353,0.0354,0.0352,0.032,0.0317,0.0339,0.0339,0.0339,0,0,0.0385,0.0385,0.0389,0.0389,0.039,0.0393,0.039,0.0393,0.0397,0.0387,0.0394,0.0385,0.0372,0.0368,0.0365,0.0362,0.0334,0.0354,0.0355,0.0352,0.0319,0.0317,0.0315,0.0339,0.0339,0.0339,0,0,0.0391,0.0394,0.04,0.0401,0.0401,0.0399,0.0401,0.0401,0.0405,0.0406,0.0399,0.039,0.0383,0.0373,0.0366,0.0365,0.0341,0.0362,0.0369,0.0338,0.0336,0.0334,0.0296,0.029,0.0362,0.0362,0.0362,0,0.0394,0.0402,0.0401,0.0406,0.0409,0.0403,0.041,0.0411,0.0409,0.041,0.0412,0.0394,0.0385,0.0373,0.0374,0.0368,0.0343,0.0369,0.0339,0.0337,0.0334,0.0296,0.029,0.0364,0.0363,0.0363,0.0363,0,0.0404,0.0412,0.0416,0.0421,0.0423,0.0428,0.0427,0.043,0.0432,0.0429,0.0422,0.0408,0.0396,0.039,0.0385,0.0362,0.0348,0.0345,0.0339,0.0334,0.0294,0.0287,0.0365,0.0365,0.0364,0.0364,0,0,0.0406,0.0421,0.0423,0.0431,0.0433,0.0435,0.0442,0.0444,0.0449,0.0442,0.0441,0.0426,0.0415,0.0406,0.0391,0.0365,0.0326,0.035,0.0348,0.0317,0.0249,0.0245,0.0237,0.032,0.0319,0.0318,0.0227,0,0.0415,0.0431,0.0435,0.0449,0.0457,0.0458,0.0464,0.0464,0.0463,0.0459,0.0439,0.0432,0.0421,0.0415,0.0387,0.0343,0.0309,0.0351,0.0255,0.0252,0.0252,0.0229,0.0315,0.0221,0.022,0.0218,0.0218,0,0.0421,0.0433,0.0451,0.0466,0.047,0.0478,0.0486,0.0492,0.0484,0.0482,0.0467,0.045,0.0414,0.0406,0.0323,0.035,0.03,0.0263,0.0259,0.0242,0.0235,0.0227,0.0204,0.0205,0.0206,0.0207,0.0208,0,0.0421,0.0442,0.0459,0.0465,0.0481,0.0491,0.0499,0.05,0.0508,0.0494,0.0491,0.0449,0.0426,0.0363,0.0292,0.0304,0.0193,0.0198,0.0143,0.0142,0.0163,0.0166,0.0131,0.0131,0.0131,0.0131,0.0131,0,0.0421,0.0436,0.0464,0.0473,0.0492,0.0501,0.0519,0.0521,0.0524,0.0527,0.0502,0.0486,0.0415,0.035,0.0284,0.0188,0.0182,0.0135,0.0117,0.0175,0.018,0.0157,0.0162,0.0128,0.0128,0.0129,0.013,0,0.0409,0.0431,0.0451,0.048,0.0492,0.0505,0.0536,0.0546,0.055,0.055,0.0546,0.0504,0.0426,0.0343,0.0232,0.0178,0.0088,0.0054,0.0111,0.01,0.0058,0.0065,-0.0018,-0.0019,-0.002,-0.002,-0.0021,0,0.0402,0.0414,0.0455,0.0472,0.0487,0.0516,0.0533,0.0553,0.0565,0.0559,0.0552,0.0491,0.0452,0.0286,0.0205,0.0068,0.0056,-0.0002,0.0038,0.0051,0.0042,0.005,0.0058,-0.0022,-0.0022,-0.0023,-0.0023,0,0.0385,0.0405,0.0423,0.0462,0.0488,0.0519,0.0547,0.0558,0.0577,0.0581,0.0548,0.048,0.039,0.0284,0.0176,0.0082,0.0031,-0.0011,-0.0009,0.0028,0.0045,0.0039,0.0047,-0.0026,-0.0025,-0.0025,-0.0025,0,0.0372,0.038,0.0411,0.0443,0.0478,0.0508,0.053,0.0545,0.0558,0.0559,0.0545,0.0466,0.0425,0.029,0.0189,0.0098,0.0083,0.0051,0.0049,0.0051,0.0107,0.0142,0.0076,0,0,0,0,0,0.0356,0.0366,0.0391,0.0426,0.0462,0.0488,0.053,0.0553,0.0573,0.055,0.0553,0.0475,0.0344,0.029,0.0197,0.0173,0.0062,0.006,0.0022,-0.0041,-0.0038,0.0018,0,0,0,0,0,0,0.0344,0.0365,0.0378,0.0405,0.043,0.047,0.0501,0.0522,0.0515,0.0526,0.0461,0.0441,0.0316,0.0394,0.0191,0.0165,0.0126,0.0006,0.0004,-0.0043,-0.004,-0.0037,0.0021,0,0,0,0,0]}]]